[[{"header":{"parameterUnit":"m.s-1","parameterCategory":1,"la1":30.2991,"la2":30.254,"lo1":-89.0895,"lo2":-89.0444,"dy":0.0017,"dx":0.0017,"nx":28,"ny":28,"refTime":"2025-09-14T03:00:00:Z","depth":0,"parameterNumber":2,"parameterNumberName":"U-component_of_WINDS"},"data":[0,0,0,0,0,0,0,0,0,0,0,0,0,0,0,0,0,0,0,0,0,0,0,0,0,0,0,0,0,0,0,0,0,0,0,0,0,0,0,0,0,0,0,0,0,0,0,0,0,0,0,0,0,0,0,0,0,0,-2.6141,-2.6141,0,-2.6187,-2.6188,-2.6188,-2.6143,-2.6142,-2.614,-2.6138,-2.6184,-2.6187,-2.619,0,0,0,0,0,0,0,0,0,0,0,0,0,-2.6013,-2.6015,-2.6141,-2.6141,-2.6142,-2.6187,-2.6188,-2.6188,-2.6144,-2.6142,-2.6139,-2.6137,-2.6183,-2.6187,-2.619,0,0,0,0,0,0,0,0,0,0,0,0,0,-2.6065,-2.6016,-2.6141,-2.6125,-2.6124,-2.6187,-2.6188,-2.6188,-2.6144,-2.6142,-2.6139,-2.6136,-2.6182,-2.6186,-2.6191,-2.627,0,0,-2.6204,-2.6206,0,0,0,0,0,0,0,0,-2.6062,-2.6069,-2.6127,-2.6126,-2.6125,-2.6157,-2.6159,-2.6216,-2.6145,-2.6137,-2.6138,-2.6135,-2.6177,-2.6182,-2.6196,-2.6272,-2.6274,-2.6204,-2.6207,-2.6209,-2.621,0,0,0,0,0,0,0,-2.6058,-2.6067,-2.6159,-2.6128,-2.6127,-2.6116,-2.612,-2.617,-2.6171,-2.6137,-2.6134,-2.614,-2.6176,-2.6192,-2.6197,-2.6275,-2.6204,-2.6208,-2.6211,-2.6212,-2.6419,-2.6421,0,0,0,0,0,0,-2.6056,-2.6064,-2.6157,-2.616,-2.6086,-2.612,-2.6125,-2.6149,-2.617,-2.6171,-2.6142,-2.6138,-2.6186,-2.6192,-2.6198,-2.6293,-2.6209,-2.6213,-2.6215,-2.6416,-2.6419,-2.6423,0,0,0,0,0,0,-2.6054,-2.6065,-2.6156,-2.6112,-2.6122,-2.6125,-2.6153,-2.6152,-2.6167,-2.6174,-2.6174,-2.6158,-2.6184,-2.6192,-2.6253,-2.6294,-2.6215,-2.6218,-2.6412,-2.6417,-2.6421,-2.6482,0,0,0,0,0,0,-2.605,-2.6064,-2.6095,-2.6113,-2.6125,-2.621,-2.6155,-2.6155,-2.6175,-2.617,-2.619,-2.619,-2.6183,-2.6247,-2.6257,-2.6298,-2.6222,-2.6409,-2.6414,-2.642,-2.6476,-2.6488,-2.6498,0,0,0,0,0,-2.6046,-2.611,-2.6097,-2.6108,-2.6163,-2.6212,-2.6219,-2.621,-2.6179,-2.6209,-2.6214,-2.619,-2.6288,-2.6253,-2.6265,-2.6308,-2.6406,-2.6413,-2.6419,-2.6472,-2.6486,-2.6498,0,0,0,0,0,0,-2.6097,-2.6112,-2.6097,-2.6169,-2.619,-2.6205,-2.6243,-2.6225,-2.6254,-2.6248,-2.6234,-2.6239,-2.6303,-2.6311,-2.6273,-2.6386,-2.6342,-2.6351,-2.6378,-2.6391,-2.6402,-2.6398,-2.6225,0,0,0,0,0,-2.6117,-2.6156,-2.6167,-2.6229,-2.624,-2.624,-2.6261,-2.6252,-2.6272,-2.6281,-2.629,-2.631,-2.6345,-2.6369,-2.6402,-2.6478,-2.6481,-2.6513,-2.6524,-2.6533,-2.654,-2.6581,-2.6595,-2.6444,-2.6444,-2.6444,0,0,-2.6157,-2.6171,-2.6196,-2.624,-2.6255,-2.6295,-2.6248,-2.6292,-2.6322,-2.6287,-2.6345,-2.6352,-2.6374,-2.6443,-2.6473,-2.6452,-2.6583,-2.6541,-2.6548,-2.6551,-2.6589,-2.6603,-2.6616,-2.6448,-2.6448,-2.6447,0,0,-2.6252,-2.6267,-2.632,-2.6336,-2.6359,-2.6359,-2.6372,-2.6389,-2.6393,-2.6451,-2.6426,-2.6461,-2.6522,-2.6538,-2.6555,-2.6657,-2.6635,-2.6668,-2.6724,-2.6763,-2.6775,-2.6786,-2.6821,-2.6835,-2.6676,-2.6676,-2.6676,0,-2.63,-2.636,-2.635,-2.6396,-2.6416,-2.6387,-2.6441,-2.6457,-2.649,-2.6504,-2.6479,-2.6556,-2.6568,-2.664,-2.6665,-2.668,-2.6693,-2.6665,-2.6774,-2.6785,-2.6794,-2.6828,-2.6842,-2.668,-2.6679,-2.6679,-2.6679,0,-2.6417,-2.646,-2.65,-2.6533,-2.6557,-2.6607,-2.6604,-2.6629,-2.6619,-2.6621,-2.668,-2.6694,-2.6729,-2.6746,-2.6736,-2.6817,-2.6802,-2.6776,-2.6732,-2.6813,-2.6844,-2.6857,-2.6685,-2.6684,-2.6683,-2.6682,0,0,-2.6545,-2.6572,-2.6587,-2.6601,-2.6625,-2.6657,-2.6706,-2.674,-2.6763,-2.6786,-2.6826,-2.6879,-2.6856,-2.6874,-2.6866,-2.6901,-2.698,-2.687,-2.6871,-2.689,-2.7069,-2.7088,-2.7103,-2.6966,-2.6969,-2.6971,-2.7067,0,-2.6641,-2.6725,-2.6717,-2.6797,-2.6836,-2.6809,-2.6852,-2.6871,-2.6874,-2.6907,-2.691,-2.6948,-2.6914,-2.6925,-2.6958,-2.6963,-2.7016,-2.6956,-2.7003,-2.7004,-2.6997,-2.712,-2.714,-2.7231,-2.708,-2.7082,-2.7083,0,-2.6763,-2.6791,-2.6876,-2.6893,-2.6909,-2.6947,-2.6978,-2.7011,-2.7031,-2.7031,-2.7053,-2.7038,-2.7086,-2.7042,-2.7108,-2.7068,-2.7087,-2.7092,-2.7095,-2.7098,-2.7048,-2.7126,-2.7259,-2.7273,-2.7103,-2.7101,-2.71,0,-2.6847,-2.6906,-2.6964,-2.6977,-2.7,-2.7027,-2.7038,-2.7056,-2.7077,-2.7105,-2.7119,-2.7151,-2.7169,-2.7194,-2.7189,-2.7157,-2.7257,-2.7211,-2.7258,-2.7258,-2.7279,-2.7278,-2.7417,-2.7292,-2.7292,-2.7292,-2.7292,0,-2.6954,-2.7007,-2.7002,-2.7038,-2.7096,-2.7086,-2.7143,-2.715,-2.7167,-2.7203,-2.7182,-2.7217,-2.7208,-2.7242,-2.7238,-2.7293,-2.7301,-2.7302,-2.7301,-2.7304,-2.7304,-2.7316,-2.7309,-2.7296,-2.7295,-2.7294,-2.7293,0,-2.7058,-2.7057,-2.7118,-2.7135,-2.714,-2.7182,-2.7195,-2.7229,-2.723,-2.7277,-2.7287,-2.729,-2.7328,-2.7326,-2.737,-2.7367,-2.7435,-2.7426,-2.7428,-2.7426,-2.7472,-2.7468,-2.7623,-2.7643,-2.7506,-2.7507,-2.7508,0,-2.7126,-2.7166,-2.7186,-2.7209,-2.7221,-2.7259,-2.7281,-2.7272,-2.7296,-2.7323,-2.7353,-2.739,-2.7419,-2.7483,-2.7488,-2.7522,-2.7513,-2.7565,-2.7518,-2.752,-2.7513,-2.7511,-2.7515,-2.7574,-2.7576,-2.7577,-2.7578,0,-2.7247,-2.7244,-2.7277,-2.731,-2.7337,-2.7362,-2.7385,-2.7405,-2.7399,-2.7427,-2.7466,-2.7489,-2.7534,-2.7571,-2.7603,-2.7613,-2.7595,-2.7593,-2.7605,-2.7609,-2.7609,-2.7609,-2.7453,-2.7589,-2.7588,-2.7587,-2.7587,-2.7586,-2.7334,-2.7368,-2.7388,-2.7425,-2.7442,-2.7464,-2.7496,-2.7502,-2.7535,-2.7571,-2.7564,-2.7608,-2.7628,-2.7669,-2.7682,-2.7717,-2.7698,-2.7716,-2.7721,-2.7725,-2.773,-2.7604,-2.7723,-2.7722,-2.7722,-2.7722,-2.7722,0,-2.7454,-2.7465,-2.7499,-2.7532,-2.7561,-2.7542,-2.7566,-2.7592,-2.7631,-2.7651,-2.7681,-2.7726,-2.7762,-2.7771,-2.7805,-2.7831,-2.7824,-2.784,-2.7838,-2.7841,-2.7745,-2.7731,-2.7846,-2.7846,-2.7846,-2.7846,-2.7846,-2.7846,-2.7519,-2.7576,-2.7576,-2.764,-2.7651,-2.7695,-2.771,-2.773,-2.7746,-2.7798,-2.7828,-2.7833,-2.7849,-2.7884,-2.7916,-2.7917,-2.7931,-2.7951,-2.7949,-2.786,-2.7847,-2.7835,-2.7822,-2.7954,-2.7954,-2.8042,-2.8042,-2.8043]},{"header":{"parameterUnit":"m.s-1","parameterCategory":1,"la1":30.2991,"la2":30.254,"lo1":-89.0895,"lo2":-89.0444,"dy":0.0017,"dx":0.0017,"nx":28,"ny":28,"refTime":"2025-09-14T03:00:00:Z","depth":0,"parameterNumber":3,"parameterNumberName":"V-component_of_WINDS"},"data":[0,0,0,0,0,0,0,0,0,0,0,0,0,0,0,0,0,0,0,0,0,0,0,0,0,0,0,0,0,0,0,0,0,0,0,0,0,0,0,0,0,0,0,0,0,0,0,0,0,0,0,0,0,0,0,0,0,0,3.0344,3.0345,0,3.0367,3.0367,3.0367,3.0338,3.0337,3.0336,3.0335,3.0355,3.0356,3.0358,0,0,0,0,0,0,0,0,0,0,0,0,0,3.0273,3.0275,3.0344,3.0345,3.0345,3.0367,3.0367,3.0367,3.0338,3.0337,3.0336,3.0334,3.0355,3.0356,3.0358,0,0,0,0,0,0,0,0,0,0,0,0,0,3.0301,3.0275,3.0344,3.0333,3.0332,3.0367,3.0367,3.0367,3.0338,3.0337,3.0335,3.0334,3.0354,3.0356,3.0358,3.0404,0,0,3.0365,3.0366,0,0,0,0,0,0,0,0,3.0299,3.0303,3.0334,3.0334,3.0333,3.0348,3.0349,3.038,3.0339,3.0336,3.0335,3.0333,3.0354,3.0356,3.0364,3.0405,3.0406,3.0366,3.0367,3.0368,3.0369,0,0,0,0,0,0,0,3.0297,3.0302,3.0353,3.0335,3.0334,3.0326,3.0328,3.0355,3.0353,3.0336,3.0334,3.0337,3.0353,3.0361,3.0364,3.0406,3.0365,3.0367,3.0369,3.037,3.0485,3.0487,0,0,0,0,0,0,3.0297,3.0301,3.0352,3.0354,3.0312,3.0328,3.0331,3.0345,3.0353,3.0353,3.0339,3.0336,3.0358,3.0361,3.0364,3.0417,3.0368,3.037,3.0371,3.0483,3.0485,3.0487,0,0,0,0,0,0,3.0296,3.0302,3.0351,3.0327,3.0332,3.0331,3.0347,3.0346,3.0354,3.0355,3.0354,3.0348,3.0357,3.0361,3.0394,3.0417,3.0371,3.0373,3.0481,3.0484,3.0486,3.0524,0,0,0,0,0,0,3.0294,3.0302,3.032,3.0327,3.0334,3.0382,3.0349,3.0348,3.0359,3.0355,3.0363,3.0363,3.0356,3.0391,3.0397,3.042,3.0375,3.0479,3.0482,3.0485,3.052,3.0527,3.0533,0,0,0,0,0,3.0291,3.0329,3.0321,3.0327,3.0356,3.0383,3.0387,3.0379,3.0361,3.0378,3.0378,3.0363,3.0415,3.0395,3.0401,3.0425,3.0478,3.0482,3.0485,3.0518,3.0526,3.0533,0,0,0,0,0,0,3.0323,3.033,3.0321,3.0362,3.0372,3.0378,3.04,3.0389,3.0404,3.04,3.0389,3.0391,3.0426,3.0429,3.0407,3.0469,3.0443,3.0448,3.0465,3.0473,3.048,3.0477,3.0377,0,0,0,0,0,3.0335,3.0357,3.0361,3.0397,3.0403,3.0401,3.0412,3.0406,3.0416,3.042,3.0422,3.0432,3.045,3.0462,3.0479,3.0522,3.0522,3.0541,3.0548,3.0553,3.0557,3.0578,3.0586,3.05,3.05,3.05,0,0,3.0359,3.0366,3.038,3.0404,3.0411,3.0433,3.0405,3.0429,3.0445,3.0423,3.0454,3.0457,3.0467,3.0504,3.0521,3.0508,3.0581,3.0558,3.0562,3.0563,3.0583,3.0591,3.0598,3.0502,3.0502,3.0501,0,0,3.0414,3.0422,3.0453,3.0461,3.0473,3.0471,3.0478,3.0486,3.0487,3.0519,3.0502,3.0521,3.0553,3.056,3.0568,3.0627,3.0613,3.0633,3.0666,3.0686,3.0693,3.0699,3.0718,3.0726,3.0638,3.0638,3.0638,0,3.0442,3.0476,3.0469,3.0495,3.0506,3.0488,3.0518,3.0526,3.0542,3.0549,3.0535,3.0575,3.058,3.0618,3.0633,3.0641,3.0647,3.0631,3.0693,3.0699,3.0704,3.0723,3.073,3.064,3.064,3.0639,3.0639,0,3.0509,3.0533,3.0556,3.0573,3.0586,3.0614,3.0611,3.0625,3.0617,3.0617,3.0649,3.0655,3.0673,3.0682,3.0675,3.0719,3.071,3.0695,3.0668,3.0715,3.0732,3.0739,3.0643,3.0642,3.0642,3.0641,0,0,3.0583,3.0597,3.0605,3.0613,3.0625,3.0642,3.0669,3.0687,3.0699,3.0711,3.0732,3.076,3.0746,3.0755,3.0749,3.0767,3.0812,3.0749,3.0749,3.0759,3.0859,3.0869,3.0878,3.0803,3.0804,3.0806,3.0858,0,3.0637,3.0684,3.0679,3.0723,3.0744,3.0728,3.0751,3.0761,3.0761,3.0778,3.0779,3.0798,3.0779,3.0784,3.0802,3.0802,3.0831,3.0799,3.0821,3.0822,3.0817,3.0887,3.0898,3.0947,3.0865,3.0866,3.0867,0,3.0706,3.0721,3.0768,3.0776,3.0785,3.0806,3.0822,3.0839,3.0849,3.0848,3.0859,3.0849,3.0875,3.085,3.0884,3.0862,3.0871,3.0873,3.0875,3.0874,3.0845,3.0887,3.0962,3.0969,3.0877,3.0876,3.0876,0,3.0753,3.0785,3.0817,3.0824,3.0835,3.085,3.0855,3.0864,3.0875,3.0889,3.0896,3.0913,3.0921,3.0934,3.0929,3.0911,3.0964,3.0938,3.0962,3.0962,3.0972,3.0971,3.1048,3.0982,3.0981,3.0981,3.0981,0,3.0812,3.0841,3.0838,3.0858,3.0889,3.0883,3.0914,3.0917,3.0925,3.0944,3.0932,3.0949,3.0942,3.0959,3.0956,3.0984,3.0988,3.0987,3.0985,3.0987,3.0987,3.0991,3.0987,3.0983,3.0983,3.0982,3.0982,0,3.0869,3.0869,3.0902,3.091,3.0913,3.0936,3.0942,3.096,3.096,3.0984,3.0989,3.0989,3.1009,3.1006,3.1027,3.1025,3.1059,3.1055,3.1056,3.1054,3.1078,3.1075,3.1158,3.1168,3.1097,3.1098,3.1099,0,3.0906,3.0927,3.0939,3.0951,3.0957,3.0977,3.0989,3.0984,3.0996,3.1009,3.1025,3.1044,3.1058,3.109,3.1091,3.1107,3.1101,3.113,3.1104,3.1104,3.11,3.1098,3.1099,3.1134,3.1135,3.1136,3.1136,0,3.0971,3.097,3.0987,3.1005,3.1019,3.1032,3.1044,3.1055,3.1051,3.1065,3.1086,3.1097,3.1119,3.1137,3.1153,3.1157,3.1145,3.1145,3.1151,3.1152,3.1151,3.115,3.1068,3.1142,3.1142,3.1141,3.1141,3.1141,3.1017,3.1036,3.1046,3.1066,3.1075,3.1086,3.1103,3.1106,3.1123,3.1141,3.1137,3.116,3.1169,3.1189,3.1195,3.1211,3.1201,3.121,3.1212,3.1214,3.1216,3.115,3.1215,3.1214,3.1214,3.1214,3.1214,0,3.108,3.1086,3.1105,3.1122,3.1138,3.1128,3.114,3.1153,3.1174,3.1184,3.1199,3.1221,3.1239,3.1242,3.1259,3.1272,3.1267,3.1276,3.1274,3.1275,3.1225,3.1218,3.1279,3.1279,3.1279,3.1279,3.1279,3.1279,3.1114,3.1144,3.1145,3.1178,3.1184,3.1207,3.1215,3.1225,3.1233,3.1259,3.1274,3.1277,3.1284,3.1301,3.1316,3.1317,3.1322,3.1333,3.1331,3.1285,3.1278,3.1272,3.1264,3.1335,3.1335,3.1379,3.1379,3.138]}]]